Tracking 29892 objects as of 21-Nov-2024
HD Live streaming from Space Station
objects crossing your sky now

NOAA 16 DEB

Track NOAA 16 DEB now!
10-day predictions


NORAD ID: 41708
Int'l Code: 2000-055PN
Perigee: 783.7 km
Apogee: 799.5 km
Inclination: 98.9 °
Period: 100.5 minutes
Semi major axis: 7162 km
RCS: Unknown
Launch date: September 21, 2000
Source: United States (US)
Launch site: AIR FORCE WESTERN TEST RANGE (AFWTR)

Note: This is SATELLITE DEBRIS
Your satellite tracking list
Your tracking list is empty




NASA's NSSDC Master Catalog

Two Line Element Set (TLE):
1 41708U 00055PN  24322.25156135  .00008913  00000-0  33202-2 0  9994
2 41708  98.8565  67.4702 0011028  49.2113 311.0024 14.32190043443943
Source of the keplerian elements: AFSPC